Flag for U.S.A. Weather past 2 weeks in Hollywood, Florida, U.S.A.

Now
80 °F

Mostly cloudy.


Feels Like: 84 °F
Forecast: 67 / 86 °F
Wind: 14 mph from West

Location: Fort Lauderdale / Hollywood International Airport

Current Time: Feb 26, 2015 at 6:02:43 PM

Latest Report: Feb 26, 2015 at 4:53 PM


Visibility: 10 mi

Pressure: 29.88 "Hg

Humidity: 74%

Dew point: 71 °F

Location of HollywoodLocation

Historic Weather in Hollywood — Graph

°F

Hollywood temperature yesterday

Maximum temperature yesterday: 80 °F (at 1:53 PM)
Minimum temperature yesterday: 64 °F (at 5:53 AM)
Average temperature yesterday: 72 °F

Past Weeks' High & Low Weather Summary

 TemperatureHumidityPressure
High84 °F (Feb 26, 1:53 PM)100% (Feb 24, 5:53 AM)30.34 "Hg (Feb 24, 5:53 AM)
Low40 °F (Feb 20, 4:53 AM)23% (Feb 19, 2:53 PM)29.80 "Hg (Feb 26, 2:53 AM)
Average66 °F68%30.10 "Hg
* Reported Feb 11 4:53 PM — Feb 26 4:53 PM, Hollywood, Weather by CustomWeather, © 2015

Note: Actual official high and low records may vary slightly from our data, if they occured in-between our weather recording intervals... More about our weather records

Advertising

Hollywood weather history for previous 24 hours

 ConditionsComfort  
Time TempWeatherWind HumidityBarometerVisibility
4:53 PM
Thu, Feb 26
80 °FMostly cloudy.14 mph74%29.88 "Hg10 mi
3:53 PM80 °FCloudy.20 mph71%29.87 "Hg10 mi
2:53 PM83 °FCloudy.18 mph59%29.85 "Hg10 mi
1:53 PM84 °FBroken clouds.16 mph59%29.85 "Hg10 mi
12:53 PM83 °FMostly cloudy.20 mph57%29.86 "Hg10 mi
11:53 AM83 °FMostly cloudy.18 mph59%29.87 "Hg10 mi
10:53 AM80 °FMostly cloudy.13 mph67%29.88 "Hg10 mi
9:53 AM78 °FMostly cloudy.14 mph74%29.88 "Hg10 mi
8:53 AM76 °FPartly sunny.13 mph82%29.88 "Hg10 mi
7:53 AM74 °FBroken clouds.13 mph88%29.87 "Hg10 mi
6:53 AM73 °FBroken clouds.12 mph90%29.84 "Hg10 mi
5:53 AM73 °FMostly cloudy.13 mph90%29.83 "Hg9 mi
4:53 AM74 °FPassing clouds.15 mph88%29.83 "Hg10 mi
3:53 AM75 °FMostly cloudy.12 mph85%29.82 "Hg10 mi
2:53 AM75 °FPassing clouds.17 mph88%29.80 "Hg10 mi
1:53 AM75 °FPassing clouds.13 mph88%29.82 "Hg10 mi
12:53 AM75 °FPassing clouds.15 mph88%29.83 "Hg9 mi
11:53 PM
Wed, Feb 25
74 °FPassing clouds.14 mph91%29.83 "Hg10 mi
10:53 PM74 °FPassing clouds.14 mph91%29.84 "Hg10 mi
9:53 PM75 °FPassing clouds.13 mph88%29.85 "Hg10 mi
8:53 PM75 °FPassing clouds.14 mph88%29.86 "Hg10 mi
7:53 PM75 °FPassing clouds.9 mph85%29.86 "Hg10 mi
6:53 PM75 °FPassing clouds.9 mph82%29.86 "Hg10 mi
Weather by CustomWeather, © 2015

See weather overviewHow to use our weather pages